Tracking 28125 objects as of 3-Oct-2023
HD Live streaming from Space Station
objects crossing your sky now

TIROS 4

Track TIROS 4 now!
10-day predictions
TIROS 4 is classified as:


NORAD ID: 226
Int'l Code: 1962-002A
Perigee: 690.6 km
Apogee: 800.4 km
Inclination: 48.3 °
Period: 99.6 minutes
Semi major axis: 7116 km
RCS: 0.8251 m2 (medium)
Launch date: February 8, 1962
Source: United States (US)
Launch site: AIR FORCE EASTERN TEST RANGE (AFETR)
Your satellite tracking list
Your tracking list is empty




NASA's NSSDC Master Catalog

Two Line Element Set (TLE):
1 00226U 62002A   23275.75231501  .00000352  00000-0  14097-3 0  9997
2 00226  48.2952 161.9609 0077201 141.4833 219.1610 14.46115906225337
Source of the keplerian elements: AFSPC